Location: Gollag?dem
(16.8053°N, 80.8024°E)
Time: 17:47:35
(UTC+00:00)

Cosmos 2228 Rocket - Pass Details

Date: 13 August 2020
Orbit: 617 x 653 km, 82.5° (Epoch: 18 September)

Event Time Altitude Azimuth Distance (km) Brightness Sun altitude
Rises 14:40:17 0° 348° (NNW) 2,883 7.0 -22.8°
Reaches altitude 10° 14:42:33 10° 344° (NNW) 1,975 6.1 -23.3°
Maximum altitude 14:46:48 53° 267° (W) 754 3.7 -24.2°
Enters shadow 14:48:37 31° 206° (SSW) 1,083 4.2 -24.6°
